Location: Monrovia
(34.7865°N, 86.7139°W)
Time: 00:46:20
(UTC+00:00)

CZ-2D R/B - Pass Details

Date: 14 July 2020
Orbit: 552 x 639 km, 97.9° (Epoch: 12 August)

Event Time Altitude Azimuth Distance (km) Brightness Sun altitude
Rises 09:07:19 0° 6° (N) 2,912 7.8 -17.2°
Reaches altitude 10° 09:09:34 10° 2° (N) 1,990 6.8 -16.8°
Maximum altitude 09:13:47 53° 286° (WNW) 753 3.7 -16.2°
Enters shadow 09:15:40 29° 223° (SW) 1,111 4.3 -15.9°
